Eden Prairie, MN

4:17 PM CST on February 19, 2017 (GMT -0600)
Flying Cloud

Weather History for KFCM - June, 2014

Change the Weather History Date:

Wednesday, June 18, 2014

  Actual Average Record
Temperature  
Mean Temperature 75 °F -  
Max Temperature 82 °F 76 °F 90 °F (2012)
Min Temperature 69 °F 57 °F 53 °F (2004)
Cooling Degree Days 10    
Growing Degree Days 25 (Base 50)    
Moisture  
Dew Point 67 °F    
Average Humidity 79    
Maximum Humidity 100    
Minimum Humidity 54    
Precipitation  
Precipitation 0.05 in - - ()
Sea Level Pressure  
Sea Level Pressure 29.84 in    
Wind  
Wind Speed 9 mph (East)    
Max Wind Speed 17 mph    
Max Gust Speed 28 mph    
Visibility 10 miles    
Events Rain , Thunderstorm    
Averages and records for this station are not official NWS values.
T = Trace of Precipitation, MM = Missing Value Source: NWS Daily Summary

Daily Weather History Graph

Daily Weather History Graph

Search for Another Location

Airport or City:

Trip Planner

Search our weather history database for the weather conditions in past years. The results will help you decide how hot, cold, wet, or windy it might be!

Date:

Astronomy

Jun. 18, 2014 Rise Set
Actual Time 5:27 AM CDT 9:02 PM CDT
Civil Twilight 4:50 AM CDT 9:40 PM CDT
Nautical Twilight 4:00 AM CDT 10:29 PM CDT
Astronomical Twilight 2:55 AM CDT 11:34 PM CDT
Moon 12:18 AM CDT (6/18) 12:06 PM CDT (6/18)
Length of Visible Light 16h 49m
Length of Day
15h 35m
Waning Gibbous, 62% of the Moon is Illuminated
Jun 18
Waning Gibbous
Jun 19
Last Quarter
Jun 27
New
Jul 5
First Quarter
Jul 12
Full

Hourly Weather History & Observations

Time (CDT) Temp. Heat Index Dew Point Humidity Pressure Visibility Wind Dir Wind Speed Gust Speed Precip Events Conditions
12:53 AM 72.0 °F - 68.0 °F 87% 29.77 in 10.0 mi NE 9.2 mph - 0.00 in   Scattered Clouds
1:53 AM 72.0 °F - 68.0 °F 87% 29.76 in 10.0 mi NE 8.1 mph - N/A   Mostly Cloudy
2:07 AM 73.4 °F - 68.0 °F 83% 29.78 in 10.0 mi ENE 9.2 mph - 0.00 in Rain , Thunderstorm Light Rain
2:53 AM 72.0 °F - 68.0 °F 87% 29.80 in 10.0 mi ENE 5.8 mph - 0.00 in Thunderstorm Mostly Cloudy
3:07 AM 71.6 °F - 68.0 °F 88% 29.82 in 10.0 mi Variable 3.5 mph - 0.00 in Rain Light Rain
3:53 AM 71.1 °F - 68.0 °F 90% 29.77 in 10.0 mi SW 6.9 mph - 0.01 in Rain Light Rain
4:53 AM 70.0 °F - 69.1 °F 97% 29.78 in 10.0 mi ENE 4.6 mph - 0.04 in   Scattered Clouds
5:53 AM 70.0 °F - 68.0 °F 93% 29.79 in 10.0 mi Calm Calm - 0.00 in   Clear
6:53 AM 70.0 °F - 68.0 °F 93% 29.78 in 8.0 mi NE 4.6 mph - N/A   Partly Cloudy
7:06 AM 69.8 °F - 68.0 °F 94% 29.80 in 8.0 mi East 3.5 mph - N/A   Mostly Cloudy
7:40 AM 69.8 °F - 68.0 °F 94% 29.84 in 8.0 mi East 6.9 mph - N/A   Scattered Clouds
7:53 AM 70.0 °F - 68.0 °F 93% 29.84 in 8.0 mi East 6.9 mph - N/A   Scattered Clouds
8:02 AM 69.8 °F - 69.8 °F 100% 29.85 in 9.0 mi East 6.9 mph - N/A   Scattered Clouds
8:19 AM 71.6 °F - 68.0 °F 88% 29.86 in 10.0 mi East 5.8 mph - N/A   Mostly Cloudy
8:53 AM 72.0 °F - 69.1 °F 91% 29.84 in 10.0 mi ENE 8.1 mph - N/A   Mostly Cloudy
9:12 AM 71.6 °F - 69.8 °F 94% 29.85 in 10.0 mi East 9.2 mph - N/A   Mostly Cloudy
9:53 AM 73.9 °F - 69.1 °F 85% 29.81 in 10.0 mi East 11.5 mph - N/A   Mostly Cloudy
10:01 AM 75.2 °F - 69.8 °F 83% 29.83 in 10.0 mi East 9.2 mph - N/A   Scattered Clouds
10:53 AM 75.0 °F - 68.0 °F 79% 29.83 in 10.0 mi ENE 11.5 mph - N/A   Mostly Cloudy
11:17 AM 77.0 °F - 68.0 °F 74% 29.84 in 10.0 mi ENE 10.4 mph - N/A   Scattered Clouds
11:53 AM 78.1 °F - 68.0 °F 71% 29.85 in 10.0 mi ESE 8.1 mph - N/A   Scattered Clouds
12:53 PM 80.1 °F 82.3 °F 66.9 °F 64% 29.87 in 10.0 mi East 5.8 mph - N/A   Scattered Clouds
1:53 PM 81.0 °F 83.0 °F 66.0 °F 60% 29.87 in 10.0 mi East 11.5 mph 19.6 mph N/A   Scattered Clouds
2:53 PM 79.0 °F - 66.0 °F 64% 29.87 in 10.0 mi East 15.0 mph - N/A   Mostly Cloudy
3:53 PM 79.0 °F - 64.9 °F 62% 29.87 in 10.0 mi East 16.1 mph 23.0 mph N/A   Scattered Clouds
4:53 PM 81.0 °F 82.2 °F 63.0 °F 54% 29.85 in 10.0 mi East 15.0 mph 21.9 mph N/A   Clear
5:53 PM 81.0 °F 82.5 °F 64.0 °F 56% 29.87 in 10.0 mi ESE 16.1 mph 21.9 mph N/A   Clear
6:53 PM 79.0 °F - 64.0 °F 60% 29.87 in 10.0 mi ESE 13.8 mph - N/A   Overcast
7:53 PM 77.0 °F - 64.9 °F 66% 29.88 in 9.0 mi East 12.7 mph - N/A   Overcast
8:53 PM 75.9 °F - 64.9 °F 69% 29.89 in 9.0 mi East 15.0 mph 21.9 mph N/A   Overcast
9:53 PM 75.9 °F - 64.0 °F 67% 29.89 in 10.0 mi East 17.3 mph 24.2 mph N/A   Overcast
10:53 PM 75.0 °F - 64.0 °F 69% 29.90 in 10.0 mi East 11.5 mph 20.7 mph N/A   Overcast
11:53 PM 75.0 °F - 64.0 °F 69% 29.88 in 10.0 mi East 16.1 mph 27.6 mph N/A   Overcast